Home   Weather   Ehingen (Donau)   Past weeks

Flag for Germany Past Weather in Ehingen (Donau), Baden-Württemberg, Germany — Yesterday and Last 2 Weeks

Now
10 °F

Ice fog.


Feels Like: 10 °F
Forecast: 6 / 22 °F
Wind: 1 mph from Northeast

Location: Laupheim Airport

Current Time: Jan 20, 2017 at 3:07:44 am

Latest Report: Jan 20, 2017 at 2:20 am


Visibility: 3 mi

Pressure: 30.42 "Hg (28.46 "Hg at 508m altitude)

Humidity: 92%

Dew Point: 9 °F

Location of Ehingen (Donau)Location

Past Weather in Ehingen (Donau) — Graph

°F

Ehingen (Donau) Temperature Yesterday

Maximum temperature yesterday: 21 °F (at 12:20 am)
Minimum temperature yesterday: 10 °F (at 11:20 pm)
Average temperature yesterday: 19 °F

High & Low Weather Summary for the Past Weeks

 TemperatureHumidityPressure
High41 °F (Jan 13, 1:20 am)100% (Jan 8, 9:06 pm)30.66 "Hg (Jan 8, 9:06 pm)
Low0 °F (Jan 7, 3:20 am)51% (Jan 13, 11:20 am)29.39 "Hg (Jan 13, 1:20 am)
Average25 °F84%30.15 "Hg
* Reported Jan 5 1:20 am — Jan 20 1:20 am, Ehingen (Donau), Weather by CustomWeather, © 2017

Note: Actual official high and low records may vary slightly from our data, if they occured in-between our weather recording intervals... More about our weather records

Advertising

Ehingen (Donau) Weather History for the Previous 24 Hours

Scroll right to see more
 ConditionsComfort  
Time TempWeatherWind HumidityBarometerVisibility
1:20 am
Fri, Jan 20
10 °FIce fog.1 mph85%30.42 "Hg3 mi
12:20 am12 °FCold.3 mph85%30.42 "Hg4 mi
11:20 pm
Thu, Jan 19
10 °FCold.1 mph92%30.42 "Hg4 mi
10:20 pm12 °FCold.1 mph92%30.45 "Hg4 mi
9:20 pm14 °FCold.1 mph85%30.45 "Hg4 mi
8:20 pm12 °FCold.6 mph85%30.45 "Hg4 mi
7:20 pm18 °FCold.7 mph79%30.45 "Hg4 mi
6:20 pm19 °FCold.6 mph73%30.42 "Hg4 mi
5:20 pm18 °FCold.5 mph79%30.42 "Hg4 mi
4:20 pm21 °FCold.2 mph74%30.42 "Hg5 mi
3:20 pm21 °FPassing clouds.5 mph74%30.42 "Hg6 mi
2:20 pm19 °FPassing clouds.9 mph79%30.42 "Hg6 mi
2:11 pm19 °FScattered clouds.9 mph79%30.42 "Hg6 mi
1:20 pm19 °FPartly sunny.12 mph79%30.42 "Hg5 mi
12:20 pm19 °FLow clouds.10 mph79%30.45 "Hg4 mi
11:20 am19 °FLow clouds.10 mph86%30.45 "Hg4 mi
10:20 am18 °FPartly sunny.10 mph86%30.45 "Hg4 mi
9:20 am18 °FPartly sunny.10 mph86%30.45 "Hg4 mi
8:20 am18 °FLow clouds.9 mph86%30.45 "Hg4 mi
7:20 am19 °FPassing clouds.7 mph86%30.42 "Hg4 mi
6:20 am21 °FPassing clouds.14 mph80%30.42 "Hg5 mi
5:20 am21 °FOvercast.17 mph80%30.42 "HgN/A
4:20 am21 °FOvercast.16 mph80%30.42 "HgN/A
3:20 am21 °FOvercast.20 mph80%30.42 "HgN/A
Weather by CustomWeather, © 2017

See weather overviewHow to use our weather pages